Temperature
15 14 14 14 14 13 13 13 13 13 13 13 13 13 13 13 13 13 12 12 12 12 12 12 12 12 12 12 12 12 12 12 12 11 11 11 11 11 11 11 11 11 11
14 14 14 13 13 13 13 13 13 13 13 13 13 13 13 13 12 12 12 12 12 12 12 12 12 11 11 11 12 12 12 12 11 11 11 11 11 11 11 11 11 10 10
14 13 13 13 13 13 13 13 13 13 13 12 12 12 12 12 12 12 12 12 12 12 12 12 11 11 11 11 11 11 11 11 11 11 11 11 11 11 11 11 10 10 10
13 13 13 13 13 12 12 12 12 12 12 12 12 12 12 12 12 12 11 11 11 11 11 11 11 11 11 11 11 11 11 11 11 11 11 11 10 10 10 10 10 10 10
13 13 13 12 12 12 12 12 12 12 12 12 12 12 12 11 11 11 11 11 11 11 11 11 11 11 11 11 11 11 11 11 11 11 10 10 10 10 10 10 10 10 10
13 12 12 12 12 12 12 12 12 12 11 11 11 11 11 11 11 11 11 11 11 11 11 11 11 11 10 10 10 10 10 10 10 10 10 10 10 10 10 10 10 10 9
12 12 12 12 12 11 11 11 11 11 11 11 11 11 11 11 11 10 10 10 10 10 10 10 10 10 10 10 10 10 10 10 10 10 10 10 10 10 10 10 9 9 9
12 12 11 11 11 11 11 11 11 11 11 11 11 10 10 10 10 10 10 10 10 10 10 10 10 10 10 10 10 10 10 10 10 10 10 10 10 10 9 9 9 9 9
12 11 11 11 11 11 11 11 11 10 10 10 10 10 10 10 10 10 10 10 10 10 10 9 9 9 9 9 9 9 9 9 9 9 9 9 9 9 9 9 9 8 8
11 11 11 11 11 10 10 10 10 10 10 10 10 10 10 10 9 9 9 9 9 9 9 9 9 9 9 9 8 9 9 9 9 9 9 9 9 9 8 8 8 8 8
11 11 11 10 10 10 10 10 10 9 9 9 9 9 9 9 9 9 9 9 9 9 9 8 8 8 8 8 8 8 8 8 8 8 8 8 8 8 8 8 8 8 8
10 10 10 10 10 10 9 9 9 9 9 9 9 9 8 8 8 8 8 8 8 8 8 8 8 8 8 8 7 7 7 7 7 8 8 8 8 8 8 8 8 8 7
10 10 10 9 9 9 9 9 9 9 8 8 8 8 8 8 8 8 8 8 7 7 7 7 7 7 7 7 7 7 7 7 7 7 7 7 7 7 7 7 7 7 7
10 9 9 9 9 9 8 8 8 8 8 8 7 7 7 7 7 7 7 7 7 7 7 7 6 6 7 7 7 6 6 6 6 6 7 7 7 7 7 7 7 7 7
9 9 9 8 8 8 8 8 8 8 8 7 7 7 7 7 7 7 7 7 7 6 6 6 6 6 6 6 6 6 6 6 6 6 6 6 6 6 6 6 6 6 6
9 8 8 8 8 8 8 7 7 7 7 7 7 7 7 7 6 6 6 6 6 6 6 6 6 5 5 5 5 5 5 5 5 5 5 5 6 6 6 6 6 5 5
8 8 8 7 7 7 7 7 7 7 7 7 6 6 6 6 6 6 6 6 6 5 5 5 5 5 5 5 5 5 5 5 5 5 5 5 5 5 5 5 5 5 5
8 8 7 7 7 7 7 7 6 6 6 6 6 6 6 6 6 5 5 5 5 5 5 5 5 5 4 4 4 4 4 4 5 5 5 5 5 5 5 5 4 4 4
7 7 7 7 6 6 6 6 6 6 6 6 6 5 5 5 5 5 5 5 5 4 4 4 4 4 4 4 4 4 4 4 4 4 4 4 4 4 4 4 4 4 4
7 6 6 6 6 6 6 6 5 5 5 5 5 5 5 5 4 4 4 4 4 4 4 4 4 4 3 3 3 3 3 4 4 4 4 4 4 4 4 4 4 4 3
6 6 6 6 6 5 5 5 5 5 5 5 4 4 4 4 4 4 4 4 4 3 3 3 3 3 3 3 3 3 3 3 3 3 4 4 4 4 4 4 4 3 3
6 5 5 5 5 5 5 5 4 4 4 4 4 4 4 3 3 3 3 3 3 3 3 3 3 3 2 2 2 2 2 2 2 3 3 3 3 3 3 3 3 3 3
5 5 5 5 4 4 4 4 4 4 4 4 3 3 3 3 3 3 3 3 3 2 2 2 2 2 2 2 2 2 2 2 2 2 2 2 2 3 3 3 3 3 2
5 5 5 4 4 4 4 3 3 3 3 3 3 3 3 3 2 2 2 2 2 2 2 2 2 1 1 1 1 2 2 1 1 2 2 2 2 2 2 2 2 2 2
5 4 4 4 3 3 3 3 3 3 3 3 2 2 2 2 2 2 2 2 1 1 1 1 1 1 1 1 1 1 1 1 1 1 1 2 2 2 2 2 2 2 2
4 4 4 3 3 3 3 3 2 2 2 2 2 2 2 1 1 1 1 1 1 1 1 1 1 1 1 1 1 1 1 1 1 1 1 1 1 1 1 1 1 1 1
Wind_Speed
3 3 4 3 3 3 3 3 3 2 3 3 3 3 3 3 2 2 2 2 2 2 1 2 2 2 2 1 1 2 2 3 3 3 2 1 1 2 2 3 4 4 5
3 3 3 3 3 3 3 2 3 2 2 2 2 3 3 3 3 3 3 3 3 2 2 2 3 2 2 2 2 2 2 3 3 3 2 1 2 2 2 2 2 3 5
3 4 3 3 3 3 2 2 2 2 2 2 2 2 2 2 3 4 4 3 3 3 3 3 3 3 3 2 3 3 2 2 2 3 2 1 2 1 1 1 1 1 3
4 4 3 3 4 3 3 2 2 2 3 3 2 2 2 2 3 3 3 3 3 3 3 3 3 4 4 4 3 4 3 2 2 2 2 2 2 1 1 1 1 1 2
4 4 4 3 3 3 2 2 2 2 2 2 2 2 2 2 2 2 3 3 3 3 2 3 3 3 4 3 3 3 4 3 2 2 2 2 2 2 2 2 2 1 2
4 4 4 3 3 3 3 2 2 1 1 1 2 2 2 2 2 2 2 3 3 3 3 2 3 2 3 3 3 3 5 5 4 3 3 4 4 4 3 3 2 1 2
3 3 3 3 3 3 3 2 2 2 1 1 2 2 2 3 3 2 2 2 3 3 3 3 2 2 2 2 3 3 4 5 6 5 4 5 5 5 4 3 3 3 4
3 3 3 3 3 3 2 3 3 2 2 2 2 2 2 3 3 3 3 2 2 3 3 4 3 3 3 2 2 1 2 3 4 4 5 5 4 4 5 5 5 3 1
4 4 4 4 3 3 3 3 3 2 2 2 2 2 2 3 3 4 3 2 2 2 3 2 2 3 3 2 2 2 2 3 3 4 5 5 4 4 4 2 3 3 2
4 4 4 4 4 4 4 3 2 2 3 2 2 2 2 3 3 2 2 2 2 2 2 2 3 3 4 3 3 3 3 3 2 2 2 2 2 3 5 4 5 4 2
3 3 3 3 4 4 3 2 2 2 1 1 1 1 2 2 2 2 2 2 2 2 2 2 3 4 4 4 3 4 5 3 2 2 1 1 1 1 2 3 4 4 4
2 3 3 3 3 2 3 2 2 2 2 1 1 1 1 2 2 2 2 2 2 3 3 3 3 4 4 4 3 4 4 2 1 1 1 2 2 2 2 2 3 3 3
3 3 3 3 2 2 3 3 2 2 2 2 2 3 3 2 2 3 3 3 3 2 3 4 4 4 3 3 3 3 2 2 2 2 2 3 3 3 1 1 1 1 1
3 3 3 3 2 2 2 2 3 3 3 3 3 3 3 3 3 2 2 2 2 2 2 2 3 2 2 2 2 2 2 2 3 3 3 3 1 1 1 1 1 1 0
3 3 3 3 3 2 2 2 3 4 5 5 5 5 4 4 5 6 4 3 3 3 1 0 0 1 1 2 1 2 2 2 2 2 2 1 1 1 1 1 1 1 1
3 3 3 2 2 2 2 1 2 3 5 5 5 5 5 6 6 6 6 6 4 3 1 2 2 2 3 3 3 3 2 3 3 3 3 3 3 2 2 1 1 2 2
4 3 3 3 3 3 2 2 2 3 3 3 4 4 5 5 5 5 5 4 4 3 2 3 3 3 3 3 3 3 3 4 3 3 3 3 3 3 3 2 2 2 2
4 4 4 3 3 3 3 3 3 2 2 2 3 4 4 4 4 4 4 2 2 2 2 3 3 3 3 3 3 3 3 3 3 3 3 4 3 3 3 3 3 4 3
3 3 3 3 3 3 3 3 2 3 3 2 2 3 3 3 2 3 3 2 3 3 3 3 3 3 3 3 4 4 4 4 4 4 4 4 4 4 4 4 4 4 3
3 5 3 3 3 3 2 2 3 3 3 3 3 3 2 1 1 2 2 2 2 3 3 3 3 3 3 3 3 3 3 4 4 4 4 4 4 4 4 5 4 4 4
3 3 4 2 3 3 3 3 3 3 3 3 3 3 3 2 3 3 3 3 3 4 4 3 3 3 3 3 3 3 4 4 4 4 4 4 4 4 4 4 5 4 4
3 2 3 3 2 3 3 3 3 3 3 4 3 3 4 2 3 3 3 3 3 3 3 3 3 3 3 3 4 4 4 4 4 4 4 4 4 4 4 4 4 4 4
3 3 3 2 2 3 3 2 2 3 3 3 3 3 3 3 3 3 3 3 3 3 3 3 3 3 4 4 4 4 4 5 5 4 4 4 4 4 4 4 5 5 5
3 3 3 3 2 2 3 3 3 3 3 3 3 3 3 3 4 4 4 3 4 4 4 4 5 5 6 5 5 5 6 6 6 6 6 5 5 4 4 4 5 5 5
3 3 3 3 3 3 3 3 3 3 3 3 3 3 3 3 4 4 3 3 4 4 5 5 5 5 7 7 7 7 8 9 8 7 6 5 5 5 5 5 5 5 5
3 3 3 3 3 3 3 3 3 3 3 3 3 3 3 3 4 4 4 4 4 4 5 5 6 7 8 8 9 10 9 9 9 8 6 5 5 5 5 5 6 5 5
Wind_Direction
173 176 166 174 171 159 161 181 184 186 173 166 183 190 182 187 183 169 188 178 179 209 204 189 220 209 192 200 178 164 173 170 201 259 253 259 209 223 217 214 223 225 222
166 156 157 155 147 154 173 179 174 179 182 175 176 186 183 183 187 183 195 188 184 203 220 201 221 207 203 206 184 192 197 188 182 222 254 247 233 228 210 211 219 224 224
155 150 150 149 149 164 186 185 174 167 177 172 173 180 194 196 197 198 196 199 202 214 215 209 219 197 212 215 196 195 201 197 183 194 235 234 247 231 198 250 238 255 228
151 151 157 169 172 180 178 172 169 169 179 186 190 191 197 203 203 202 197 200 212 223 220 213 215 204 209 209 206 204 191 186 187 191 222 240 245 238 172 214 262 290 258
155 162 180 183 172 163 168 177 172 173 182 192 188 197 201 199 209 205 200 203 211 227 237 229 224 214 215 207 203 199 187 190 191 199 219 232 238 209 212 208 211 236 268
162 181 187 174 172 173 183 182 170 180 185 167 185 199 205 218 215 197 188 198 208 214 228 241 241 217 230 228 226 206 189 186 195 199 215 222 235 224 207 198 189 190 259
169 184 188 179 181 196 189 175 182 191 182 183 212 210 215 235 236 220 213 192 204 219 224 228 241 247 221 220 244 243 227 213 200 194 206 224 225 221 198 198 202 208 231
178 185 191 188 188 190 186 200 207 198 196 205 216 217 221 250 257 234 221 202 213 231 230 222 220 240 231 205 208 232 250 248 231 220 215 226 233 216 204 203 205 201 247
195 197 197 188 188 188 193 215 211 192 207 216 212 210 214 256 270 249 215 188 206 239 248 235 222 224 239 217 180 209 259 277 270 248 236 233 233 221 191 164 168 170 228
211 206 195 184 184 194 201 211 203 187 204 211 227 226 218 239 268 258 232 180 203 244 267 253 238 238 246 229 197 198 227 258 274 292 287 269 242 231 212 197 190 188 197
215 201 185 183 189 194 193 197 188 189 188 196 232 264 255 250 274 264 252 204 206 221 245 259 253 248 244 237 219 214 226 233 228 228 258 274 286 240 221 205 194 193 199
193 188 193 200 204 185 175 191 189 180 183 211 228 265 270 265 266 251 254 248 233 212 234 248 250 255 254 248 237 231 232 223 184 187 228 258 248 244 246 224 208 208 213
175 187 191 193 196 186 181 186 188 191 198 215 215 230 252 255 254 259 252 252 257 243 234 250 259 257 256 253 243 233 221 194 180 199 230 247 252 247 234 234 216 153 82
179 194 187 180 194 208 204 196 198 205 209 217 223 231 244 249 246 243 236 244 245 256 249 250 262 270 254 237 246 244 215 200 198 217 233 250 263 244 223 207 212 181 149
195 207 201 193 195 212 225 226 221 225 220 217 217 216 218 237 242 238 231 224 219 224 226 239 285 284 273 269 258 248 227 211 217 230 230 246 247 223 238 225 201 171 184
199 211 209 200 204 211 220 285 292 264 267 258 239 231 235 238 242 242 244 237 226 205 184 215 236 242 243 244 239 241 239 230 224 221 225 231 227 218 226 227 202 190 206
197 212 209 204 203 208 209 208 257 314 309 290 272 261 257 247 240 241 243 238 225 196 204 226 232 237 242 243 243 238 239 242 229 221 226 232 228 216 207 211 210 208 212
200 215 209 208 212 210 212 216 217 228 264 294 294 281 279 269 251 242 229 206 231 228 227 232 239 240 240 241 243 248 247 246 239 229 229 235 227 218 212 212 212 211 207
207 214 214 212 218 217 214 213 220 230 238 259 288 299 289 279 272 257 217 210 218 232 240 241 243 245 245 243 244 245 243 244 245 237 232 231 225 219 218 218 216 215 208
217 235 228 213 215 216 215 217 226 230 236 244 251 260 268 251 237 243 236 237 232 239 241 246 248 248 247 248 249 246 245 249 249 245 238 229 224 220 219 217 213 211 214
211 226 230 228 216 215 217 224 228 228 232 238 244 247 236 223 228 230 229 234 234 238 244 247 249 248 248 247 246 247 248 252 250 250 247 236 227 224 222 214 212 210 210
196 203 207 214 219 221 226 227 225 229 235 241 254 254 244 237 235 240 242 247 248 244 239 239 242 242 238 239 243 246 249 254 254 248 246 245 239 228 221 213 210 206 203
198 197 201 211 218 234 237 233 231 234 238 234 232 237 237 235 235 236 240 246 246 245 239 233 242 250 248 242 236 234 242 246 244 243 247 248 244 231 219 215 213 207 207
193 197 200 210 217 217 224 231 235 237 238 232 227 228 231 233 238 244 249 251 245 240 236 232 235 242 249 250 248 246 247 249 247 239 237 237 239 237 223 217 214 214 213
185 191 195 208 218 223 228 233 235 238 238 231 227 226 232 238 242 246 249 250 251 248 245 243 242 244 246 249 251 255 257 256 257 250 235 229 233 228 223 221 218 214 214
194 195 198 206 216 225 228 233 240 240 239 238 231 231 233 239 245 249 250 250 252 251 249 250 253 254 254 253 256 260 258 256 255 255 241 229 230 227 220 223 220 215 209
Height
1513 1514 1514 1515 1516 1517 1518 1518 1519 1520 1521 1521 1522 1522 1522 1523 1523 1524 1524 1524 1524 1524 1524 1524 1525 1525 1525 1525 1525 1525 1525 1525 1524 1525 1526 1526 1526 1525 1526 1526 1526 1525 1525
1510 1511 1512 1513 1514 1515 1515 1516 1517 1517 1518 1519 1519 1519 1520 1520 1521 1521 1521 1521 1521 1521 1522 1522 1522 1522 1522 1522 1522 1523 1523 1523 1523 1522 1523 1523 1523 1523 1523 1523 1524 1524 1524
1508 1509 1510 1511 1512 1512 1513 1514 1514 1515 1516 1516 1516 1516 1517 1517 1518 1518 1518 1518 1519 1519 1519 1519 1519 1519 1519 1519 1519 1520 1520 1520 1520 1520 1519 1520 1520 1521 1521 1521 1521 1521 1521
1507 1507 1508 1508 1509 1510 1511 1511 1512 1512 1513 1513 1513 1514 1514 1515 1515 1515 1515 1515 1515 1516 1516 1516 1516 1516 1516 1516 1516 1517 1517 1517 1517 1517 1517 1517 1518 1518 1518 1518 1518 1518 1518
1505 1505 1505 1506 1507 1507 1508 1508 1509 1510 1510 1511 1511 1511 1511 1512 1512 1512 1512 1512 1512 1512 1512 1513 1513 1513 1513 1514 1514 1514 1514 1514 1514 1514 1514 1514 1514 1514 1515 1515 1515 1515 1515
1502 1502 1503 1504 1504 1505 1505 1506 1507 1507 1508 1508 1508 1508 1508 1509 1509 1509 1509 1509 1509 1509 1509 1509 1510 1510 1510 1510 1510 1511 1511 1511 1510 1510 1510 1510 1510 1511 1511 1512 1512 1512 1512
1500 1500 1500 1501 1501 1502 1502 1503 1504 1504 1504 1505 1505 1505 1505 1505 1506 1506 1506 1506 1505 1505 1505 1505 1506 1506 1506 1506 1506 1507 1507 1507 1508 1507 1507 1507 1507 1507 1508 1508 1508 1508 1508
1497 1497 1498 1498 1498 1499 1499 1500 1500 1501 1501 1501 1502 1502 1502 1502 1502 1502 1502 1502 1502 1502 1502 1502 1502 1502 1502 1502 1502 1502 1503 1503 1503 1503 1503 1503 1504 1504 1504 1504 1504 1504 1505
1494 1494 1495 1495 1495 1496 1496 1496 1497 1497 1498 1498 1498 1498 1498 1498 1498 1498 1498 1498 1498 1498 1498 1498 1498 1498 1498 1499 1499 1498 1498 1499 1499 1500 1500 1500 1500 1500 1500 1500 1500 1500 1500
1491 1491 1492 1492 1492 1493 1492 1493 1493 1494 1494 1494 1494 1494 1494 1494 1494 1494 1494 1494 1493 1493 1493 1494 1494 1494 1494 1495 1495 1495 1494 1494 1495 1495 1495 1495 1496 1496 1496 1497 1497 1497 1496
1489 1489 1489 1489 1489 1489 1489 1489 1490 1490 1490 1490 1490 1490 1490 1490 1490 1490 1490 1490 1489 1489 1489 1489 1489 1490 1490 1491 1491 1491 1490 1491 1491 1491 1491 1491 1491 1491 1492 1492 1493 1493 1493
1486 1485 1485 1486 1486 1486 1486 1486 1486 1486 1486 1485 1485 1485 1486 1486 1485 1485 1486 1486 1485 1485 1484 1485 1485 1485 1486 1486 1486 1486 1487 1487 1487 1487 1486 1486 1486 1487 1487 1488 1488 1489 1489
1482 1482 1482 1482 1482 1482 1482 1482 1482 1482 1481 1481 1481 1481 1481 1481 1481 1481 1481 1481 1481 1481 1480 1480 1481 1481 1481 1481 1482 1482 1483 1483 1482 1482 1482 1482 1482 1483 1483 1483 1484 1484 1484
1479 1479 1479 1479 1479 1479 1479 1478 1478 1477 1477 1477 1477 1476 1476 1476 1476 1476 1476 1476 1476 1476 1476 1476 1476 1476 1476 1477 1477 1478 1478 1478 1478 1478 1478 1478 1478 1479 1479 1479 1479 1480 1480
1476 1476 1475 1475 1475 1475 1475 1475 1474 1474 1474 1473 1473 1473 1472 1472 1472 1472 1472 1472 1472 1472 1472 1471 1472 1472 1472 1472 1472 1473 1473 1473 1473 1473 1474 1474 1474 1474 1474 1475 1475 1475 1476
1472 1472 1472 1471 1471 1471 1471 1470 1470 1471 1470 1470 1469 1469 1468 1469 1468 1468 1468 1468 1468 1468 1468 1467 1467 1467 1467 1467 1467 1468 1468 1468 1468 1469 1469 1469 1469 1469 1470 1470 1471 1471 1471
1467 1467 1467 1467 1467 1467 1467 1466 1466 1466 1466 1465 1465 1465 1464 1464 1464 1464 1464 1464 1464 1464 1463 1463 1463 1463 1463 1463 1463 1463 1463 1463 1464 1464 1464 1464 1465 1465 1465 1466 1466 1467 1467
1464 1464 1463 1463 1463 1463 1463 1463 1462 1461 1461 1460 1460 1460 1460 1459 1459 1459 1460 1459 1459 1459 1459 1459 1458 1458 1458 1458 1458 1458 1459 1459 1459 1459 1459 1459 1460 1460 1461 1461 1461 1462 1462
1460 1460 1459 1459 1459 1459 1459 1459 1458 1458 1457 1456 1456 1456 1455 1455 1455 1455 1455 1454 1454 1454 1454 1454 1454 1454 1454 1454 1454 1454 1454 1454 1454 1454 1454 1454 1455 1455 1456 1456 1457 1457 1458
1456 1456 1456 1455 1455 1455 1454 1454 1454 1453 1453 1452 1452 1452 1451 1450 1450 1449 1449 1449 1449 1449 1449 1450 1450 1450 1450 1450 1450 1449 1449 1449 1449 1449 1449 1449 1450 1450 1451 1451 1452 1452 1453
1452 1451 1451 1451 1451 1450 1450 1450 1450 1449 1449 1448 1448 1448 1448 1447 1446 1446 1445 1445 1445 1445 1445 1445 1445 1445 1445 1445 1445 1444 1444 1444 1443 1444 1444 1444 1445 1445 1445 1446 1446 1447 1448
1447 1447 1447 1446 1446 1446 1446 1446 1445 1445 1444 1444 1444 1444 1444 1443 1442 1442 1442 1441 1441 1441 1441 1440 1440 1440 1440 1440 1440 1439 1439 1438 1438 1439 1439 1439 1439 1439 1440 1440 1441 1442 1443
1443 1443 1443 1442 1442 1442 1442 1442 1441 1441 1440 1440 1440 1439 1439 1438 1438 1438 1437 1438 1437 1437 1436 1436 1436 1435 1435 1435 1434 1434 1434 1433 1433 1433 1433 1434 1434 1434 1434 1435 1435 1436 1437
1439 1439 1439 1438 1438 1438 1437 1437 1437 1436 1436 1436 1435 1435 1435 1434 1434 1433 1433 1433 1432 1432 1431 1431 1431 1430 1430 1430 1429 1429 1429 1429 1429 1428 1428 1429 1428 1428 1429 1429 1430 1431 1432
1435 1435 1435 1435 1434 1434 1433 1432 1432 1432 1431 1431 1431 1430 1430 1430 1429 1429 1428 1428 1427 1427 1426 1426 1426 1425 1425 1424 1424 1424 1424 1424 1423 1423 1423 1423 1423 1423 1424 1425 1425 1426 1428
1432 1431 1431 1431 1430 1430 1429 1428 1428 1427 1427 1427 1427 1426 1426 1426 1425 1424 1424 1423 1422 1422 1421 1421 1420 1420 1419 1419 1419 1418 1418 1418 1418 1418 1418 1418 1418 1418 1419 1420 1420 1422 1423